NOAA 16 DEB, 41206

Orbit data source: Space-Track

NOAA 16 DEB, 41206 is space debris in SSO originally from a launch on Thu, 21 Sep 2000 UTC launched from the Air Force Western Test Range (AFWTR). Debris objects in space refer to the collection of defunct objects orbiting the Earth. Examples of debris include non-operational satellites, rocket bodies, and fragments generated from explosions, collisions, or faulty payload assembly.

Loading next visibility...
Identifier
41206, 2000-055DK
Orbit
SSO
Country
Flag of USUS
Related business
Manufacturer
Unknown
Mission
Spacecraft
Bus & Motor
Unknown
Mass
Unknown
Launch date (UTC)
2000-09-21 (25 years ago)
Launch vehicle
Unknown
Launch site
Air Force Western Test Range (AFWTR)
Object type
Payload
Rocket body
Debris
Shape & HBR
Unknown
Radar Cross Section
Small (<0.1 m²)

Expand to show TLE details & history
Last TLE update: 19 hours ago

TLE from 19 hours ago
0 NOAA 16 DEB
1 41206U 00055DK  25258.89631423  .00002587  00000-0  11438-2 0  9992
2 41206  98.6327 300.1939 0011840 226.7064 133.3128 14.24049131503510
Epoch: 2025-09-15T21:30Z
TLE epoch observation values (Epoch: 2025-09-15T21:30:41.549Z)
Latitude
-0.00004°
Longitude
-17.57361°
Altitude
820.46 km
Speed
7.44 km/s
True Right ascension
20h 00m 46s
True Declination
0° 00' 00"
Sunlit
Object was in full shadow at epoch
Visualization orbit readout
Latitude
Unknown
Longitude
Unknown
Altitude
Unknown
Speed
Unknown
Apparent Right ascension
Unknown
Apparent Declination
Unknown
Sunlit
N/A
Visualization observer readout
Local Sidereal Time
09:35:13
Azimuth
Unknown
Elevation
Unknown
Doppler factor
Unknown
Orbital elements
Apogee altitude
817.35 km
Perigee altitude
800.332 km
Semi-major axis
7,186.978 km
Eccentricity
0.00118
Inclination
98.6327°
RAAN
300.1939°
Arg. of periapsis
226.7064°
True anomaly
133.41142°
Mean anomaly
133.3128°
Eccentric anomaly
133.36212°
Mean motion
3.56224 °/min
Orbital period
101.06 mins
BSTAR
0.0011438
Loading maneuver chart data...
Computing Atmospheric mass density...
Loading historical data...
Loading historical data...
Loading historical data...
Loading historical data...
Loading historical data...
Loading historical data...
Loading historical data...

Documentation

Showing up to 5 results
|